Location: Unspecified
(0.0000°N, 0.0000°E)
Time: 01:53:17
(UTC+00:00)

Vanguard 2 - Pass Details

Date: 22 November 2019
Orbit: 553 x 2938 km, 32.9° (Epoch: 10 December)

Event Time Altitude Azimuth Distance (km) Brightness Sun altitude
Rises 02:25:51 0° 228° (SW) 6,370 12.1 -46.1°
Reaches altitude 10° 02:29:53 10° 224° (SW) 5,536 11.7 -45.2°
Maximum altitude 02:47:27 65° 145° (SE) 3,094 10.4 -41.3°
Drops below altitude 10° 03:03:06 10° 66° (ENE) 5,035 12.0 -37.8°
Sets 03:06:33 0° 64° (ENE) 5,792 12.4 -37.0°
